Home > Weather > Hanoi > Past weeks

Flag for Vietnam Weather for the Past 2 Weeks in Hanoi, Vietnam

Now
59 °F

Fog.


Feels Like: 60 °F
Forecast: 60 / 83 °F
Wind: 3 mph from East

Location: Ha Noi Airport

Current Time: Feb 10, 2016 at 8:20:34 AM

Latest Report: Feb 10, 2016 at 7:30 AM


Visibility: 2 mi

Pressure: 30.04 "Hg

Humidity: 94%

Dew point: 57 °F

Location of HanoiLocation

Historic Weather in Hanoi — Graph

°F

Hanoi Temperature Yesterday

Maximum temperature yesterday: 72 °F (at 3:00 PM)
Minimum temperature yesterday: 48 °F (at 6:00 AM)
Average temperature yesterday: 60 °F

High & Low Weather Summary for the Past Weeks

 TemperatureHumidityPressure
High72 °F (Feb 9, 3:00 PM)100% (Jan 26, 12:30 PM)30.45 "Hg (Jan 26, 12:30 PM)
Low45 °F (Jan 26, 7:00 AM)27% (Feb 8, 3:30 PM)29.95 "Hg (Jan 28, 3:00 PM)
Average57 °F79%30.18 "Hg
* Reported Jan 26 7:00 AM — Feb 10 7:00 AM, Hanoi, Weather by CustomWeather, © 2016

Note: Actual official high and low records may vary slightly from our data, if they occured in-between our weather recording intervals... More about our weather records

Advertising

Hanoi Weather History for the Previous 24 Hours

 ConditionsComfort  
Time TempWeatherWind HumidityBarometerVisibility
7:00 AM
Wed, Feb 10
59 °FFog.No wind94%30.04 "Hg2 mi
6:30 AM59 °FFog.2 mph94%30.01 "Hg3 mi
6:00 AM57 °FFog.5 mph100%30.01 "Hg2 mi
5:30 AM57 °FFog.3 mph94%30.01 "Hg2 mi
4:30 AM55 °FFog.5 mph100%29.98 "Hg2 mi
4:00 AM55 °FFog.3 mph100%29.98 "Hg3 mi
3:30 AM55 °FFog.5 mph94%29.98 "Hg3 mi
3:00 AM55 °FFog.5 mph100%30.01 "Hg3 mi
2:30 AM55 °FFog.5 mph100%30.01 "Hg3 mi
2:00 AM55 °FFog.6 mph100%30.01 "Hg3 mi
1:30 AM57 °FClear.6 mph94%30.01 "Hg4 mi
1:00 AM57 °FClear.5 mph94%30.04 "Hg4 mi
12:30 AM57 °FClear.6 mph94%30.04 "Hg4 mi
12:00 AM59 °FClear.6 mph94%30.04 "Hg4 mi
11:30 PM
Tue, Feb 9
59 °FClear.6 mph94%30.04 "Hg5 mi
11:00 PM59 °FClear.5 mph94%30.04 "Hg4 mi
10:30 PM61 °FClear.3 mph88%30.04 "Hg5 mi
10:00 PM61 °FClear.6 mph88%30.04 "Hg6 mi
9:30 PM63 °FClear.8 mph83%30.04 "Hg6 mi
9:00 PM63 °FClear.9 mph83%30.04 "Hg10 mi
8:30 PM63 °FClear.9 mph83%30.04 "Hg10 mi
8:00 PM64 °FClear.8 mph78%30.04 "Hg10 mi
7:30 PM64 °FClear.10 mph78%30.01 "Hg10 mi
7:00 PM66 °FClear.12 mph73%30.01 "Hg10 mi
6:30 PM66 °FClear.9 mph68%30.01 "Hg10 mi
5:30 PM68 °FSunny.9 mph60%30.01 "Hg10 mi
5:00 PM70 °FSunny.8 mph53%30.01 "Hg10 mi
4:30 PM70 °FSunny.10 mph50%30.01 "Hg10 mi
4:00 PM70 °FSunny.9 mph50%30.01 "Hg10 mi
3:00 PM72 °FPassing clouds.9 mph44%30.04 "HgN/A
2:30 PM70 °FPassing clouds.8 mph43%30.04 "HgN/A
2:00 PM70 °FPassing clouds.7 mph43%30.07 "HgN/A
1:30 PM70 °FSunny.3 mph38%30.07 "Hg10 mi
1:00 PM70 °FSunny.6 mph40%30.09 "Hg10 mi
12:30 PM68 °FPassing clouds.6 mph40%30.12 "HgN/A
11:30 AM66 °FSunny.6 mph46%30.15 "Hg10 mi
10:30 AM64 °FPassing clouds.5 mph49%30.21 "HgN/A
10:00 AM63 °FPassing clouds.5 mph52%30.21 "HgN/A
9:30 AM61 °FPassing clouds.3 mph55%30.21 "HgN/A
9:00 AM57 °FSunny.2 mph67%30.21 "Hg10 mi
8:30 AM57 °FSunny.2 mph67%30.18 "Hg10 mi
8:00 AM54 °FClear.2 mph72%30.18 "Hg6 mi
Weather by CustomWeather, © 2016

See weather overviewHow to use our weather pages